EW3600 Weather Reports


time (UTC)temp
C
wind
direction
speed
KPH
gust
KPH
rain 1hr
cm
rain 24hr
cm
rain mn
cm
humidity
%
barometer
mb
20260502123111 -17 0.0 0.0 0.00 0.00 0.00 1015.5
20260502121543 -17 0.0 0.0 0.00 0.00 0.00 1015.4
20260502114515 -17 0.0 0.0 0.00 0.00 0.00 1015.4
20260502113054 -17 0.0 0.0 0.00 0.00 0.00 1015.3
20260502111553 -17 0.0 0.0 0.00 0.00 0.00 1015.4
20260502110037 -17 0.0 0.0 0.00 0.00 0.00 1015.4
20260502104523 -17 0.0 0.0 0.00 0.00 0.00 1015.4
20260502103005 -17 0.0 0.0 0.00 0.00 0.00 1015.4
20260502101604 -17 0.0 0.0 0.00 0.00 0.00 1015.3
20260502091505 -17 0.0 0.0 0.00 0.00 0.00 1015.2
20260502071524 -17 0.0 0.0 0.00 0.00 0.00 1015.5
20260502070059 -17 0.0 0.0 0.00 0.00 0.00 1015.5
20260502064556 -17 0.0 0.0 0.00 0.00 0.00 1015.5
20260502063049 -17 0.0 0.0 0.00 0.00 0.00 1015.6
20260502061529 -17 0.0 0.0 0.00 0.00 0.00 1015.7
20260502060008 -17 0.0 0.0 0.00 0.00 0.00 1015.8
20260502054505 -17 0.0 0.0 0.00 0.00 0.00 1015.8
20260502053043 -17 0.0 0.0 0.00 0.00 0.00 1015.9
20260502051538 -17 0.0 0.0 0.00 0.00 0.00 1016.0
20260502050030 8 71 0.0 4.8 0.00 0.00 0.00 46 1016.2
20260502044518 8 70 0.0 3.2 0.00 0.00 0.00 47 1016.2
20260502043121 8 84 0.0 1.6 0.00 0.00 0.00 47 1016.2
20260502041600 9 14 1.6 9.7 0.00 0.00 0.00 46 1016.0
20260502040041 9 23 8.0 11.3 0.00 0.00 0.00 45 1015.9
20260502034541 10 356 4.8 8.0 0.00 0.00 0.00 43 1015.9
20260502033026 10 34 1.6 6.4 0.00 0.00 0.00 36 1015.5
20260502031523 11 46 0.0 3.2 0.00 0.00 0.00 34 1015.2
20260502030013 11 5 3.2 8.0 0.00 0.00 0.00 33 1014.9
20260502024505 13 297 0.0 1.6 0.00 0.00 0.00 25 1014.6
20260502023046 14 314 0.0 0.0 0.00 0.00 0.00 20 1014.5
20260502021545 15 314 0.0 0.0 0.00 0.00 0.00 19 1014.5
20260502020028 16 314 0.0 3.2 0.00 0.00 0.00 18 1014.6
20260502014531 17 313 0.0 3.2 0.00 0.00 0.00 18 1014.5
20260502013009 17 338 0.0 4.8 0.00 0.00 0.00 17 1014.5
20260502011513 17 321 6.4 11.3 0.00 0.00 0.00 18 1014.3
20260502010058 17 345 0.0 6.4 0.00 0.00 0.00 20 1014.4
20260502004600 17 344 1.6 9.7 0.00 0.00 0.00 20 1014.4
20260502003030 17 350 3.2 9.7 0.00 0.00 0.00 18 1014.5
20260502001534 17 29 6.4 11.3 0.00 0.00 0.00 19 1014.6
20260502000008 17 311 0.0 8.0 0.00 0.00 0.00 19 1014.7
20260501234508 17 15 8.0 16.1 0.00 0.00 0.00 20 1014.8
20260501233106 17 359 3.2 12.9 0.00 0.00 0.00 18 1014.8
20260501231547 17 342 4.8 12.9 0.00 0.00 0.00 19 1014.9
20260501230046 16 15 1.6 17.7 0.00 0.00 0.00 20 1015.1
20260501224525 17 275 3.2 9.7 0.00 0.00 0.00 19 1015.2
20260501223024 17 328 1.6 11.3 0.00 0.00 0.00 20 1015.3
20260501221504 16 357 1.6 14.5 0.00 0.00 0.00 22 1015.5
20260501220002 17 352 3.2 12.9 0.00 0.00 0.00 23 1015.8
20260501214541 17 317 1.6 12.9 0.00 0.00 0.00 26 1016.1
20260501213046 16 93 3.2 14.5 0.00 0.00 0.00 24 1016.3
20260501211516 16 314 8.0 16.1 0.00 0.00 0.00 25 1016.4
20260501210032 15 332 4.8 16.1 0.00 0.00 0.00 25 1016.6
20260501204555 15 11 12.9 17.7 0.00 0.00 0.00 28 1016.8
20260501203052 15 333 4.8 25.7 0.00 0.00 0.00 27 1016.9
20260501201534 15 9 11.3 17.7 0.00 0.00 0.00 28 1016.8
20260501200032 15 328 8.0 17.7 0.00 0.00 0.00 28 1017.0
20260501194519 15 304 4.8 16.1 0.00 0.00 0.00 29 1017.2
20260501193011 15 306 1.6 8.0 0.00 0.00 0.00 30 1017.3
20260501191550 14 285 1.6 12.9 0.00 0.00 0.00 29 1017.5
20260501190109 13 340 12.9 19.3 0.00 0.00 0.00 32 1017.6
20260501184527 13 336 9.7 19.3 0.00 0.00 0.00 31 1017.8
20260501183026 13 358 11.3 20.9 0.00 0.00 0.00 30 1018.2
20260501181504 13 330 3.2 12.9 0.00 0.00 0.00 33 1018.3
20260501180002 13 238 3.2 9.7 0.00 0.00 0.00 32 1018.4
20260501174546 12 352 8.0 16.1 0.00 0.00 0.00 32 1018.6
20260501173040 12 346 9.7 14.5 0.00 0.00 0.00 34 1018.8
20260501171519 11 326 6.4 16.1 0.00 0.00 0.00 37 1019.0
20260501170016 11 285 0.0 12.9 0.00 0.00 0.00 36 1019.2
20260501164556 10 300 0.0 11.3 0.00 0.00 0.00 37 1019.3
20260501163058 10 8 0.0 14.5 0.00 0.00 0.00 38 1019.2
20260501161539 10 359 1.6 9.7 0.00 0.00 0.00 41 1019.2
20260501160035 9 2 3.2 9.7 0.00 0.00 0.00 43 1019.2
20260501154516 8 6 6.4 11.3 0.00 0.00 0.00 48 1019.2
20260501153014 8 339 1.6 8.0 0.00 0.00 0.00 53 1019.3
20260501151514 7 356 3.2 6.4 0.00 0.00 0.00 56 1019.3
20260501150016 6 330 1.6 8.0 0.00 0.00 0.00 63 1019.4
20260501144502 6 323 0.0 3.2 0.00 0.00 0.00 64 1019.3
20260501143100 5 323 0.0 3.2 0.00 0.00 0.00 69 1019.3